Temp
-7 -7 -7 -7 -6 -6 -6 -5 -5 -5 -4 -4 -3 -3 -2 -1 -1 -0 -0 0 1 1 2 2 2 2 2
-9 -9 -9 -9 -8 -8 -7 -7 -7 -7 -7 -6 -6 -6 -5 -4 -3 -3 -2 -2 -1 -1 -0 0 1 1 1
-10 -10 -10 -10 -10 -10 -9 -9 -9 -8 -8 -8 -8 -8 -7 -6 -6 -6 -5 -5 -4 -3 -3 -2 -2 -1 -1
-12 -12 -12 -12 -11 -11 -11 -11 -11 -11 -10 -9 -9 -9 -9 -8 -8 -8 -8 -7 -7 -6 -6 -5 -4 -3 -2
-13 -13 -13 -13 -13 -13 -13 -13 -12 -13 -12 -12 -11 -10 -10 -10 -9 -9 -9 -9 -8 -8 -7 -7 -6 -6 -5
-15 -15 -15 -14 -14 -14 -14 -14 -13 -14 -14 -13 -13 -12 -12 -11 -11 -11 -11 -10 -9 -9 -8 -8 -7 -7 -6
-16 -16 -16 -16 -16 -16 -15 -15 -15 -15 -15 -14 -14 -13 -13 -13 -12 -12 -12 -11 -10 -10 -9 -9 -8 -8 -7
-17 -17 -17 -18 -17 -17 -17 -16 -16 -16 -16 -15 -15 -14 -14 -13 -13 -13 -13 -12 -12 -12 -11 -10 -10 -9 -8
-18 -18 -18 -18 -18 -18 -17 -17 -16 -16 -16 -16 -15 -15 -15 -14 -14 -13 -13 -13 -12 -12 -12 -12 -11 -11 -10
-19 -18 -18 -18 -18 -18 -18 -18 -17 -17 -17 -17 -16 -16 -15 -14 -14 -14 -13 -13 -13 -13 -13 -12 -12 -12 -11
-19 -19 -18 -19 -19 -19 -19 -18 -18 -18 -17 -17 -16 -16 -15 -15 -14 -15 -14 -14 -14 -14 -13 -13 -13 -13 -12
-20 -19 -19 -19 -19 -19 -19 -19 -18 -18 -17 -17 -17 -16 -16 -15 -15 -15 -15 -15 -14 -14 -14 -13 -13 -13 -13
-20 -19 -19 -19 -19 -19 -19 -19 -18 -18 -18 -18 -17 -17 -17 -16 -15 -15 -15 -15 -15 -15 -15 -14 -14 -14 -13
-19 -19 -19 -19 -19 -20 -20 -20 -20 -19 -19 -19 -18 -18 -17 -17 -17 -16 -16 -15 -16 -15 -15 -15 -14 -14 -14
-20 -20 -20 -20 -20 -20 -20 -21 -21 -20 -20 -19 -20 -19 -19 -18 -18 -17 -17 -17 -17 -16 -16 -15 -14 -14 -14
-20 -20 -20 -20 -20 -20 -21 -21 -21 -21 -21 -20 -20 -20 -20 -19 -19 -19 -18 -18 -18 -18 -17 -16 -14 -15 -15
-21 -20 -20 -20 -20 -20 -21 -21 -21 -21 -21 -21 -20 -20 -20 -20 -19 -20 -20 -19 -19 -18 -18 -17 -16 -16 -16
Height
3025 3025 3025 3025 3025 3027 3029 3031 3034 3035 3037 3039 3042 3044 3046 3048 3051 3054 3056 3059 3061 3064 3067 3071 3076 3080 3085
3016 3015 3014 3015 3015 3016 3017 3019 3021 3024 3025 3027 3030 3032 3034 3036 3039 3042 3044 3047 3049 3052 3055 3058 3060 3063 3067
3004 3004 3005 3005 3004 3004 3006 3007 3008 3010 3012 3014 3017 3019 3021 3023 3026 3029 3032 3035 3037 3039 3041 3044 3047 3050 3053
2990 2995 2995 2996 2994 2994 2995 2996 2997 2998 3000 3001 3004 3005 3008 3010 3013 3017 3019 3021 3024 3026 3029 3031 3034 3037 3040
2981 2981 2987 2986 2986 2984 2983 2984 2987 2989 2989 2991 2991 2991 2994 2997 3000 3004 3007 3009 3012 3014 3017 3019 3021 3023 3025
2973 2972 2974 2976 2976 2977 2975 2975 2977 2979 2978 2979 2981 2981 2983 2986 2988 2990 2992 2994 2997 3000 3003 3005 3007 3009 3012
2964 2965 2964 2965 2967 2966 2967 2966 2966 2968 2968 2966 2971 2970 2973 2974 2977 2980 2980 2981 2982 2984 2986 2989 2992 2995 2997
2956 2956 2956 2956 2957 2957 2957 2957 2957 2957 2959 2956 2958 2959 2960 2963 2966 2967 2968 2969 2971 2971 2971 2973 2975 2977 2979
2947 2947 2947 2947 2948 2948 2947 2947 2947 2948 2951 2947 2947 2946 2948 2951 2954 2955 2956 2957 2958 2959 2960 2961 2961 2961 2962
2938 2938 2938 2938 2939 2939 2938 2936 2937 2936 2941 2939 2937 2936 2933 2938 2940 2942 2943 2945 2945 2946 2947 2947 2947 2946 2947
2930 2929 2929 2929 2929 2929 2929 2927 2925 2923 2930 2928 2925 2925 2924 2922 2928 2929 2930 2932 2932 2933 2934 2935 2936 2935 2934
2922 2921 2920 2919 2918 2917 2916 2915 2913 2912 2915 2917 2913 2913 2912 2912 2912 2917 2917 2919 2919 2921 2921 2923 2923 2923 2923
2914 2912 2910 2908 2906 2904 2903 2902 2901 2901 2901 2902 2902 2902 2900 2899 2900 2902 2905 2906 2906 2908 2908 2908 2909 2910 2910
2906 2904 2901 2898 2895 2893 2891 2889 2888 2888 2889 2890 2890 2889 2889 2888 2888 2888 2891 2892 2894 2894 2894 2894 2896 2896 2896
2898 2896 2893 2890 2887 2885 2882 2880 2878 2878 2878 2879 2879 2878 2877 2877 2876 2877 2878 2880 2880 2880 2880 2880 2882 2882 2882
2890 2887 2885 2883 2880 2878 2875 2873 2871 2870 2869 2870 2870 2868 2867 2866 2867 2867 2868 2867 2867 2868 2868 2866 2866 2868 2868
2882 2880 2877 2875 2873 2871 2868 2866 2864 2862 2861 2861 2861 2859 2856 2854 2860 2860 2855 2855 2856 2856 2856 2854 2851 2851 2852
Wind_Speed
41 40 41 43 45 47 47 47 46 47 49 50 50 51 52 54 55 56 57 58 60 60 61 60 59 59 58
37 39 41 41 43 45 46 47 46 45 46 47 47 47 49 50 52 54 56 57 58 59 60 61 62 62 61
39 39 40 41 43 43 43 44 45 45 44 44 43 44 46 47 48 49 49 51 53 55 56 57 59 60 61
42 37 39 39 42 43 43 42 41 42 42 43 43 44 44 45 45 45 46 47 49 49 50 51 53 56 58
40 40 35 36 37 40 43 42 40 38 41 40 43 45 44 44 44 43 44 45 46 47 47 48 49 50 52
37 38 36 35 36 38 40 41 41 38 39 39 39 42 43 42 42 42 43 45 46 47 46 47 47 48 50
35 35 35 35 34 37 35 38 38 37 38 41 38 41 40 41 41 40 41 44 46 47 47 47 48 48 49
33 35 35 36 36 37 37 37 38 39 36 42 41 42 41 40 39 40 41 43 44 46 47 48 48 49 49
31 33 34 35 35 36 37 38 40 38 35 39 40 43 41 40 39 39 41 43 45 46 46 47 48 49 51
30 32 33 34 34 35 38 41 42 43 38 41 42 42 45 40 39 38 40 40 42 43 43 45 46 49 51
29 33 33 34 35 35 37 39 42 44 39 41 45 44 44 46 40 40 39 39 39 41 41 42 43 44 48
34 36 37 38 38 40 41 43 44 45 42 42 46 45 46 45 46 41 41 39 40 39 39 40 40 41 43
32 34 36 38 39 41 41 42 44 45 45 43 43 44 45 47 46 44 41 40 39 37 38 39 39 40 41
28 28 30 32 33 34 35 35 38 39 39 39 38 40 42 43 43 44 42 40 38 37 38 39 39 39 41
26 26 26 27 28 28 29 30 32 33 33 31 31 34 37 40 42 42 40 38 38 38 38 39 39 39 41
27 27 26 25 25 24 26 28 29 29 31 29 28 32 36 39 38 39 37 39 39 37 37 41 42 41 42
26 27 27 26 26 25 24 26 27 28 29 29 29 32 35 39 34 33 37 38 37 37 38 41 45 45 44
Wind_Direction
270 269 268 266 266 267 266 264 262 262 262 260 258 257 256 255 254 254 255 256 258 258 258 257 255 254 251
268 268 266 266 265 265 265 265 265 263 262 261 260 259 259 257 255 254 253 252 252 253 255 255 257 257 257
271 268 268 267 266 266 266 267 267 265 263 262 262 259 256 255 255 254 254 255 254 252 252 252 253 254 255
273 269 268 268 269 269 267 266 267 268 268 266 262 261 259 257 254 252 251 251 252 252 253 254 255 254 254
273 273 266 267 267 267 270 272 269 270 267 267 266 262 260 260 258 256 254 253 253 253 253 253 254 255 256
273 274 273 266 263 265 268 270 271 270 275 267 265 265 265 263 262 261 261 259 257 255 254 254 254 254 254
274 275 274 276 276 272 270 271 272 272 270 271 267 266 265 264 262 261 261 262 263 263 261 258 257 256 255
271 272 272 272 271 273 275 272 271 271 273 273 272 268 266 265 264 262 260 260 261 263 264 265 265 264 263
273 273 273 272 272 272 271 272 270 269 270 274 273 273 271 267 264 262 261 260 261 261 263 265 265 266 266
274 275 275 275 273 270 270 269 272 272 271 273 273 273 273 270 267 263 263 262 261 261 261 263 266 267 268
275 275 276 276 276 275 272 270 269 269 271 270 270 270 271 275 268 269 267 263 263 261 260 261 263 264 269
277 280 281 280 278 276 274 273 273 273 271 266 268 270 270 269 271 269 269 267 265 264 264 263 262 264 265
283 285 284 283 282 279 276 273 270 270 271 270 267 266 267 269 270 270 268 266 267 269 268 267 267 266 265
286 291 291 287 284 282 279 277 274 271 270 269 267 266 266 266 269 269 269 270 270 269 270 268 268 268 268
288 291 295 293 289 286 283 280 277 277 274 270 267 266 265 267 267 269 273 274 273 274 274 273 272 273 271
293 293 295 295 297 292 286 282 280 278 276 274 269 265 265 265 269 274 275 275 275 277 279 279 276 274 273
293 294 294 295 294 295 294 289 284 281 278 275 270 268 270 271 271 270 278 275 278 279 279 277 278 279 278